• In Hungary
  • List of Countries
  • For 7 days
  • Water Temperature
  • Satellite Maps
  • Weather Map
  • News
  • Weather Widgets
  • user-avatar
    Login

    Hourly Weather Saint-Ghislain

    Today, 19 October, Thursday

    Time Temperature Precipitation Wind Pressure Humidity
    00:00 +15°C° 0 mm 2 mps 756 mmHg 87%
    01:00 +15°C° 0 mm 2 mps 756 mmHg 87%
    02:00 +14°C° 0 mm 2 mps 756 mmHg 88%
    03:00 +14°C° 0 mm 2 mps 755 mmHg 88%
    04:00 +13°C° 0 mm 3 mps 755 mmHg 88%
    05:00 +13°C° 0 mm 3 mps 755 mmHg 88%
    06:00 +12°C° 0 mm 4 mps 755 mmHg 86%
    07:00 +14°C° 0 mm 4 mps 755 mmHg 82%
    08:00 +15°C° 0 mm 5 mps 755 mmHg 77%
    09:00 +17°C° 0 mm 5 mps 755 mmHg 73%
    10:00 +19°C° 0 mm 6 mps 754 mmHg 69%
    11:00 +20°C° 0 mm 6 mps 754 mmHg 66%
    12:00 +21°C° 0 mm 7 mps 754 mmHg 61%
    13:00 +21°C° 0 mm 6 mps 753 mmHg 63%
    14:00 +22°C° 0 mm 6 mps 753 mmHg 64%
    15:00 +22°C° 0 mm 5 mps 753 mmHg 66%
    16:00 +21°C° 0 mm 5 mps 753 mmHg 69%
    17:00 +19°C° 0 mm 5 mps 753 mmHg 73%
    18:00 +18°C° 0 mm 4 mps 753 mmHg 76%
    19:00 +17°C° 0 mm 5 mps 753 mmHg 76%
    20:00 +17°C° 0 mm 5 mps 753 mmHg 76%
    21:00 +16°C° 0 mm 5 mps 753 mmHg 76%
    22:00 +16°C° 0 mm 6 mps 753 mmHg 77%
    23:00 +16°C° 0 mm 6 mps 753 mmHg 78%

    Tomorrow, 20 October, Friday

    Time Temperature Precipitation Wind Pressure Humidity
    00:00 +15°C° 0 mm 6 mps 753 mmHg 78%
    01:00 +15°C° 0.6 mm 6 mps 753 mmHg 81%
    02:00 +15°C° 0.6 mm 7 mps 753 mmHg 83%
    03:00 +14°C° 0.6 mm 7 mps 753 mmHg 85%
    04:00 +14°C° 0.8 mm 7 mps 753 mmHg 85%
    05:00 +13°C° 0.8 mm 6 mps 753 mmHg 85%
    06:00 +13°C° 0.8 mm 6 mps 754 mmHg 86%
    07:00 +12°C° 0 mm 7 mps 754 mmHg 83%
    08:00 +12°C° 0 mm 7 mps 755 mmHg 80%
    09:00 +12°C° 0 mm 8 mps 755 mmHg 77%
    10:00 +13°C° 0 mm 8 mps 755 mmHg 73%
    11:00 +13°C° 0 mm 8 mps 756 mmHg 69%
    12:00 +15°C° 0 mm 8 mps 756 mmHg 65%
    13:00 +15°C° 0 mm 7 mps 757 mmHg 66%
    14:00 +14°C° 0 mm 7 mps 757 mmHg 66%
    15:00 +14°C° 0 mm 6 mps 757 mmHg 66%
    16:00 +13°C° 0 mm 5 mps 757 mmHg 69%
    17:00 +13°C° 0 mm 4 mps 757 mmHg 72%
    18:00 +12°C° 0 mm 3 mps 758 mmHg 75%
    19:00 +12°C° 0 mm 4 mps 758 mmHg 75%
    20:00 +12°C° 0 mm 4 mps 757 mmHg 75%
    21:00 +11°C° 0 mm 4 mps 757 mmHg 75%
    22:00 +12°C° 0 mm 4 mps 757 mmHg 73%
    23:00 +12°C° 0 mm 5 mps 757 mmHg 72%

    Day after tomorrow, 21 October, Saturday

    Time Temperature Precipitation Wind Pressure Humidity
    00:00 +13°C° 0 mm 5 mps 756 mmHg 70%
    01:00 +13°C° 0 mm 6 mps 756 mmHg 74%
    02:00 +13°C° 0 mm 6 mps 755 mmHg 78%
    03:00 +13°C° 0 mm 6 mps 755 mmHg 82%
    04:00 +12°C° 0.2 mm 7 mps 755 mmHg 83%
    05:00 +14°C° 0.2 mm 7 mps 755 mmHg 85%
    06:00 +14°C° 0.2 mm 7 mps 754 mmHg 86%
    07:00 +14°C° 0.3 mm 7 mps 755 mmHg 86%
    08:00 +14°C° 0.3 mm 7 mps 755 mmHg 85%
    09:00 +14°C° 0.3 mm 7 mps 755 mmHg 84%
    10:00 +15°C° 0 mm 7 mps 755 mmHg 77%
    11:00 +16°C° 0 mm 8 mps 755 mmHg 69%
    12:00 +16°C° 0 mm 9 mps 755 mmHg 62%
    13:00 +16°C° 0.1 mm 8 mps 755 mmHg 62%
    14:00 +16°C° 0.1 mm 8 mps 755 mmHg 61%
    15:00 +15°C° 0.1 mm 7 mps 755 mmHg 61%
    16:00 +14°C° 0 mm 7 mps 755 mmHg 63%
    17:00 +13°C° 0 mm 6 mps 755 mmHg 65%
    18:00 +11°C° 0 mm 6 mps 755 mmHg 67%
    19:00 +11°C° 0 mm 7 mps 755 mmHg 67%
    20:00 +11°C° 0 mm 7 mps 755 mmHg 67%
    21:00 +10°C° 0 mm 8 mps 756 mmHg 66%
    22:00 +10°C° 0 mm 8 mps 756 mmHg 67%
    23:00 +10°C° 0 mm 8 mps 756 mmHg 68%

    22 October, Sunday

    Time Temperature Precipitation Wind Pressure Humidity
    00:00 +10°C° 0 mm 8 mps 756 mmHg 69%
    01:00 +10°C° 0.1 mm 8 mps 756 mmHg 71%
    02:00 +10°C° 0.1 mm 8 mps 756 mmHg 72%
    03:00 +9°C° 0.1 mm 8 mps 756 mmHg 74%
    04:00 +9°C° 0.2 mm 8 mps 756 mmHg 75%
    05:00 +9°C° 0.2 mm 8 mps 756 mmHg 77%
    06:00 +9°C° 0.2 mm 8 mps 756 mmHg 78%
    07:00 +9°C° 0.2 mm 8 mps 756 mmHg 77%
    08:00 +9°C° 0.2 mm 8 mps 756 mmHg 76%
    09:00 +10°C° 0.2 mm 8 mps 756 mmHg 75%
    10:00 +10°C° 0.3 mm 8 mps 757 mmHg 75%
    11:00 +10°C° 0.3 mm 8 mps 757 mmHg 75%
    12:00 +10°C° 0.3 mm 7 mps 757 mmHg 75%
    13:00 +10°C° 0.3 mm 7 mps 757 mmHg 75%
    14:00 +10°C° 0.3 mm 7 mps 757 mmHg 75%
    15:00 +10°C° 0.3 mm 6 mps 757 mmHg 75%
    16:00 +10°C° 0.6 mm 6 mps 757 mmHg 79%
    17:00 +9°C° 0.6 mm 6 mps 757 mmHg 84%
    18:00 +8°C° 0.6 mm 5 mps 758 mmHg 88%
    19:00 +9°C° 0.7 mm 5 mps 758 mmHg 88%
    20:00 +9°C° 0.7 mm 5 mps 758 mmHg 88%
    21:00 +9°C° 0.7 mm 5 mps 758 mmHg 88%
    22:00 +9°C° 0.2 mm 5 mps 758 mmHg 87%
    23:00 +9°C° 0.2 mm 5 mps 759 mmHg 87%

    23 October, Monday

    Time Temperature Precipitation Wind Pressure Humidity
    00:00 +9°C° 0.2 mm 5 mps 759 mmHg 86%
    01:00 +9°C° 0 mm 5 mps 759 mmHg 86%
    02:00 +10°C° 0 mm 4 mps 760 mmHg 87%
    03:00 +8°C° 0 mm 4 mps 760 mmHg 87%
    04:00 +8°C° 0 mm 4 mps 760 mmHg 88%
    05:00 +9°C° 0 mm 3 mps 761 mmHg 89%
    06:00 +8°C° 0 mm 3 mps 761 mmHg 90%
    07:00 +9°C° 0.1 mm 3 mps 761 mmHg 89%
    08:00 +10°C° 0.1 mm 4 mps 761 mmHg 89%
    09:00 +11°C° 0.1 mm 4 mps 762 mmHg 88%
    10:00 +11°C° 1.4 mm 4 mps 762 mmHg 90%
    11:00 +12°C° 1.4 mm 5 mps 762 mmHg 91%
    12:00 +12°C° 1.4 mm 5 mps 762 mmHg 93%
    13:00 +12°C° 0.9 mm 5 mps 762 mmHg 93%
    14:00 +12°C° 0.9 mm 5 mps 761 mmHg 93%
    15:00 +13°C° 0.9 mm 5 mps 761 mmHg 93%
    16:00 +13°C° 0.7 mm 5 mps 761 mmHg 94%
    17:00 +13°C° 0.7 mm 5 mps 762 mmHg 94%
    18:00 +14°C° 0.7 mm 4 mps 762 mmHg 95%
    19:00 +14°C° 1.1 mm 5 mps 762 mmHg 95%
    20:00 +14°C° 1.1 mm 5 mps 762 mmHg 95%
    21:00 +14°C° 1.1 mm 5 mps 762 mmHg 94%
    22:00 +14°C° 0.1 mm 4 mps 762 mmHg 95%
    23:00 +14°C° 0.1 mm 4 mps 762 mmHg 95%

    24 October, Tuesday

    Time Temperature Precipitation Wind Pressure Humidity
    00:00 +14°C° 0.1 mm 4 mps 762 mmHg 96%
    01:00 +14°C° 0.1 mm 4 mps 763 mmHg 96%
    02:00 +14°C° 0.1 mm 4 mps 763 mmHg 96%
    03:00 +14°C° 0.1 mm 4 mps 763 mmHg 96%
    04:00 +14°C° 0.2 mm 4 mps 763 mmHg 96%
    05:00 +14°C° 0.2 mm 4 mps 763 mmHg 96%
    06:00 +14°C° 0.2 mm 4 mps 763 mmHg 96%
    07:00 +15°C° 0.1 mm 4 mps 764 mmHg 95%
    08:00 +15°C° 0.1 mm 4 mps 764 mmHg 95%
    09:00 +15°C° 0.1 mm 4 mps 764 mmHg 95%
    10:00 +17°C° 0.1 mm 4 mps 765 mmHg 93%
    11:00 +17°C° 0.1 mm 4 mps 765 mmHg 91%
    12:00 +18°C° 0.1 mm 4 mps 765 mmHg 89%
    13:00 +18°C° 0 mm 3 mps 765 mmHg 89%
    14:00 +18°C° 0 mm 3 mps 765 mmHg 88%
    15:00 +18°C° 0 mm 2 mps 765 mmHg 87%
    16:00 +17°C° 0 mm 2 mps 765 mmHg 88%
    17:00 +17°C° 0 mm 2 mps 766 mmHg 89%
    18:00 +17°C° 0 mm 2 mps 766 mmHg 90%
    19:00 +16°C° 0 mm 2 mps 766 mmHg 91%
    20:00 +16°C° 0 mm 2 mps 766 mmHg 92%
    21:00 +16°C° 0 mm 2 mps 767 mmHg 92%
    22:00 +15°C° 0 mm 2 mps 767 mmHg 93%
    23:00 +15°C° 0 mm 2 mps 767 mmHg 94%
    Show more